This demonstration page uses our WeatherBlox Daily Observations layout. Learn more.

Hourly Observations for January 30, 2019

Temp ( °F °C ) Dew Point ( °F °C ) Humidity (%) Winds ( mph kmh ) Pressure ( in mb ) Visibility ( mi km ) Precip ( " mm )
12:15 am 00:15 Clear 25 -4 12 -11 59 59 NW 14 22 30.03 1017 10 16.09344 0 0
12:35 am 00:35 Clear 25 -4 12 -11 59 59 NW 14 22 30.03 1017 10 16.09344 0 0
12:55 am 00:55 Clear 23 -5 12 -11 63 63 NW 15 24 30.06 1018 10 16.09344 0 0
1:15 am 01:15 Clear 23 -5 12 -11 63 63 NW 12 19 30.06 1018 10 16.09344 0 0
1:35 am 01:35 Clear 23 -5 12 -11 63 63 NW 13 20 30.06 1018 10 16.09344 0 0
1:55 am 01:55 Clear 21 -6 10 -12 63 63 NNW 3 6 30.03 1017 10 16.09344 0 0
2:15 am 02:15 Clear 21 -6 12 -11 68 68 Calm 30.03 1017 10 16.09344 0 0
2:35 am 02:35 Clear 19 -7 12 -11 73 73 Calm 30.03 1017 10 16.09344 0 0
2:55 am 02:55 Clear 19 -7 12 -11 73 73 Calm 30.03 1017 10 16.09344 0 0
3:15 am 03:15 Clear 19 -7 12 -11 73 73 Calm 30.03 1017 10 16.09344 0 0
3:35 am 03:35 Clear 14 -10 12 -11 92 92 Calm 30.06 1018 10 16.09344 0 0
3:55 am 03:55 Clear 12 -11 12 -11 100 100 SW 3 6 30.06 1018 10 16.09344 0 0
4:15 am 04:15 Clear 12 -11 12 -11 100 100 SW 3 6 30.06 1018 10 16.09344 0 0
4:35 am 04:35 Clear 12 -11 12 -11 100 100 Calm 30.06 1018 10 16.09344 0 0
4:55 am 04:55 Clear 12 -11 10 -12 92 92 Calm 30.06 1018 10 16.09344 0 0
5:15 am 05:15 Clear 12 -11 10 -12 92 92 Calm 30.06 1018 10 16.09344 0 0
5:35 am 05:35 Clear 14 -10 12 -11 92 92 Calm 30.03 1017 10 16.09344 0 0
5:55 am 05:55 Clear 9 -13 9 -13 100 100 Calm 30.03 1017 10 16.09344 0 0
6:15 am 06:15 Clear 10 -12 10 -12 100 100 WSW 3 6 30.03 1017 10 16.09344 0 0
6:35 am 06:35 Clear 12 -11 12 -11 100 100 S 5 7 30.03 1017 10 16.09344 0 0
6:55 am 06:55 Clear 12 -11 10 -12 92 92 SSW 7 11 30.03 1017 10 16.09344 0 0
7:15 am 07:15 Clear 12 -11 10 -12 92 92 S 8 13 30.03 1017 10 16.09344 0 0
7:35 am 07:35 Sunny 9 -13 9 -13 100 100 SSW 7 11 30.03 1017 10 16.09344 0 0
7:55 am 07:55 Sunny 14 -10 14 -10 100 100 SSW 9 15 30.03 1017 10 16.09344 0 0
8:15 am 08:15 Sunny 18 -8 14 -10 86 86 SSW 6 9 29.97 1015 10 16.09344 0 0
8:35 am 08:35 Sunny 19 -7 14 -10 79 79 SSW 9 15 29.97 1015 10 16.09344 0 0
9:55 am 09:55 Sunny 27 -3 18 -8 69 69 S 14 22 29.94 1014 10 16.09344 0 0
10:15 am 10:15 Sunny 28 -2 18 -8 64 64 SSW 16 26 29.94 1014 10 16.09344 0 0
10:35 am 10:35 Sunny 30 -1 19 -7 64 64 S 18 30 29.91 1013 10 16.09344 0 0
10:55 am 10:55 Mostly Cloudy 32 0 19 -7 60 60 SSW 21 33 29.91 1013 7 11.265408 0 0
11:15 am 11:15 Cloudy 32 0 19 -7 60 60 SSW 24 39 29.91 1013 10 16.09344 0 0
11:35 am 11:35 Cloudy 32 0 19 -7 60 60 SSW 14 22 29.91 1013 10 16.09344 0 0
11:55 am 11:55 Cloudy 32 0 19 -7 60 60 SW 14 22 29.88 1012 10 16.09344 0 0
12:15 pm 12:15 Cloudy with Haze 32 0 19 -7 60 60 NW 35 56 29.94 1014 5 8.04672 0 0
12:35 pm 12:35 undefined 23 -5 21 -6 93 93 NW 20 31 29.94 1014 N/A 0 0
12:55 pm 12:55 Cloudy 23 -5 19 -7 86 86 NW 17 28 29.94 1014 N/A 0 0
1:15 pm 13:15 Cloudy 27 -3 14 -10 59 59 NW 21 33 29.94 1014 N/A 0 0
1:35 pm 13:35 Mostly Cloudy 27 -3 12 -11 54 54 NW 12 19 29.97 1015 N/A 0 0
1:55 pm 13:55 Partly Cloudy 27 -3 10 -12 50 50 WNW 28 44 30 1016 7 11.265408 0 0
2:15 pm 14:15 Mostly Cloudy with Haze 23 -5 12 -11 63 63 NW 20 31 30 1016 1.75 2.816352 0 0
2:35 pm 14:35 Hazy 23 -5 12 -11 63 63 NNW 26 43 30.03 1017 4 6.437376 0 0
2:55 pm 14:55 Sunny 21 -6 9 -13 58 58 NW 22 35 30.06 1018 7 11.265408 0 0
3:15 pm 15:15 Mostly Cloudy with Haze 21 -6 7 -14 54 54 WNW 24 39 30.06 1018 1.75 2.816352 0 0
3:35 pm 15:35 Sunny 21 -6 7 -14 54 54 NW 21 33 30.09 1019 7 11.265408 0 0
3:55 pm 15:55 Sunny 19 -7 5 -15 53 53 NW 18 30 30.12 1020 7 11.265408 0 0
4:15 pm 16:15 Sunny 19 -7 3 -16 49 49 NW 28 44 30.12 1020 7 11.265408 0 0
4:35 pm 16:35 Sunny 19 -7 1 -17 45 45 NNW 24 39 30.15 1021 10 16.09344 0 0
4:55 pm 16:55 Sunny 18 -8 3 -16 53 53 NNW 22 35 30.21 1023 7 11.265408 0 0
5:15 pm 17:15 Sunny 18 -8 1 -17 49 49 NW 23 37 30.21 1023 10 16.09344 0 0
5:35 pm 17:35 Clear 16 -9 0 -18 48 48 NNW 23 37 30.24 1024 10 16.09344 0 0
5:55 pm 17:55 Clear 16 -9 0 -18 48 48 NNW 22 35 30.24 1024 10 16.09344 0 0
6:15 pm 18:15 Clear 14 -10 0 -18 52 52 NW 18 30 30.27 1025 10 16.09344 0 0
6:35 pm 18:35 Clear 14 -10 -4 -20 44 44 NW 20 31 30.27 1025 10 16.09344 0 0
6:55 pm 18:55 Clear 14 -10 -2 -19 48 48 NW 15 24 30.3 1026 10 16.09344 0 0
7:15 pm 19:15 Clear 12 -11 -2 -19 52 52 NW 21 33 30.3 1026 10 16.09344 0 0
7:35 pm 19:35 Clear 12 -11 -2 -19 52 52 NW 16 26 30.33 1027 10 16.09344 0 0
7:55 pm 19:55 Clear 12 -11 -4 -20 48 48 NW 12 19 30.33 1027 10 16.09344 0 0
8:15 pm 20:15 Clear 12 -11 -4 -20 48 48 NW 12 19 30.33 1027 10 16.09344 0 0
8:35 pm 20:35 Clear 12 -11 -4 -20 48 48 NW 13 20 30.36 1028 10 16.09344 0 0
8:55 pm 20:55 Clear 10 -12 -6 -21 47 47 WNW 8 13 30.36 1028 10 16.09344 0 0
9:15 pm 21:15 Clear 10 -12 -6 -21 47 47 NW 5 7 30.36 1028 10 16.09344 0 0
9:35 pm 21:35 Clear 10 -12 -8 -22 44 44 NW 3 6 30.36 1028 10 16.09344 0 0
9:55 pm 21:55 Clear 12 -11 -8 -22 40 40 N 5 7 30.36 1028 10 16.09344 0 0
10:15 pm 22:15 Clear 10 -12 -8 -22 44 44 NW 5 7 30.36 1028 10 16.09344 0 0
10:35 pm 22:35 Clear 9 -13 -6 -21 51 51 NW 10 17 30.36 1028 10 16.09344 0 0
10:55 pm 22:55 Clear 10 -12 -6 -21 47 47 NW 9 15 30.36 1028 10 16.09344 0 0
11:15 pm 23:15 Clear 10 -12 -8 -22 44 44 NNW 7 11 30.36 1028 10 16.09344 0 0
11:35 pm 23:35 Clear 10 -12 -8 -22 44 44 NNW 5 7 30.36 1028 10 16.09344 0 0
11:55 pm 23:55 Clear 9 -13 -8 -22 47 47 N 3 6 30.36 1028 10 16.09344 0 0

Powered by AerisWeather